Regional Weather Roundup
Issued by NWS Cleveland, OH

Home | Current Version | Previous Version | Graphics & Text | Print | Product List | Glossary On
Versions: 1 2 3 4 5 6 7 8 9 10 11 12 13 14 15 16 17 18 19 20 21 22 23 24 25 26 27 28 29 30 31 32 33 34 35 36 37 38 39 40 41 42 43 44 45 46 47 48 49 50
373
ASUS41 KCLE 020402
RWRCLE
OHIO REGIONAL WEATHER ROUNDUP
NATIONAL WEATHER SERVICE CLEVELAND, OH
1200 AM EDT MON MAY 02 2016

NOTE: "FAIR" INDICATES FEW OR NO CLOUDS BELOW 12,000 FEET WITH NO
SIGNIFICANT WEATHER AND/OR OBSTRUCTIONS TO VISIBILITY.

OHZ001>008-015>018-024>027-034-035-043-044-020500-
   NORTHWEST OHIO

CITY           SKY/WX    TMP DP  RH WIND       PRES   REMARKS
DEFIANCE       HVY RAIN  51  48  89 NE7       29.97R FOG
FINDLAY        TSTM      52  47  83 NE16      29.89F
TOLEDO EXPRESS CLOUDY    49  46  90 NE9       29.93F
TOLEDO EXEC    CLOUDY    50  46  86 NE9       29.95F FOG
LIMA           LGT RAIN  52  51  97 NE12      29.89F
$$

OHZ009>014-019>023-028>033-038-089-020500-
   NORTHEAST OHIO

CITY           SKY/WX    TMP DP  RH WIND       PRES   REMARKS
CLE-HOPKINS    CLOUDY    52  47  83 NE8       29.97F
CLE-LAKEFRONT  CLOUDY    51  47  86 E9        29.94F
CUY CO. ARPT   NOT AVBL
LORAIN-ELYRIA  CLOUDY    50  46  86 E8        29.94F
ASHTABULA      CLOUDY    45  44  97 NE7       29.97F
AKRON-CANTON   CLOUDY    55  51  86 NE7       29.92F
WOOSTER        CLOUDY    53  49  86 NE7       29.92F
MANSFIELD      CLOUDY    52  50  93 E10       29.91F
YOUNGSTOWN     CLOUDY    51  48  89 N10       29.94F
$$

OHZ042-051>053-060>062-070>072-077>081-020500-
  SOUTHWEST OHIO

CITY           SKY/WX    TMP DP  RH WIND       PRES   REMARKS
CINC-COVINGTON CLOUDY    61  59  93 S7        29.88S
CINC-LUNKEN    MOCLDY    59  59 100 SW3       29.87F
HAMILTON       MOCLDY    62  61  96 S3        29.87S
DAYTON         CLOUDY    59  58  96 SE6       29.88S
WRIGHT-PAT AFB NOT AVBL
DAYTON GENERAL PTCLDY    61  58  90 S9        29.86S
WILMINGTON     MOCLDY    60  56  86 S7        29.87F
$$

OHZ036-037-039>041-045>050-054>059-063>069-073>076-082>088-020500-
  CENTRAL AND SOUTHEAST OHIO

CITY           SKY/WX    TMP DP  RH WIND       PRES   REMARKS
COLUMBUS       CLOUDY    60  59  96 CALM      29.86F
OSU AIRPORT    CLOUDY    58  57  97 NE5       29.86F
BOLTON FIELD   NOT AVBL
RICKENBACK AFB CLOUDY    61  60  96 CALM      29.87F
NEWARK         CLOUDY    63  59  87 NE6       29.88F
MARION         HVY RAIN  54  52  93 NE7       29.92S FOG
LANCASTER      MOCLDY    61  57  87 SE3       29.88F
ZANESVILLE     CLOUDY    63  56  78 CALM      29.90R
NEW PHILLY     CLOUDY    58  54  86 N5        29.90F
$$




USA.gov is the U.S. government's official web portal to all federal, state and local government web resources and services.